Dewpoint
19 20 21 20 19 17 15 14 12 7 14 17 27 28 27 28 29 28 28 28 28 26 25 26 27 29 31 31 30 31 31 32 36 37 37 38 39 42 44 44 47 56 60 61
13 15 15 13 14 16 17 17 18 18 18 26 29 30 27 28 27 27 28 28 28 27 27 28 28 30 32 30 30 31 30 31 34 35 35 36 36 37 40 41 41 48 50 55
11 16 17 12 16 15 23 23 22 25 27 29 30 30 29 27 28 28 29 29 29 28 29 30 29 31 31 30 30 30 31 31 32 34 34 34 34 35 37 38 41 42 45 49
15 16 4 9 28 27 26 23 25 24 25 30 31 32 31 29 28 29 30 31 31 30 31 31 31 30 30 30 30 31 31 31 32 33 33 33 33 33 34 36 37 41 42 46
14 17 16 19 27 25 22 23 23 24 27 29 31 31 29 27 30 30 31 32 32 33 32 31 29 30 30 30 30 30 31 32 32 33 33 33 33 33 34 36 36 38 38 40
19 14 7 13 25 24 27 20 23 25 27 28 29 24 24 27 32 31 32 32 33 32 31 30 30 30 30 30 30 29 30 31 31 32 32 32 33 33 34 35 36 37 37 38
17 17 17 21 23 24 20 18 22 26 27 26 25 26 28 32 31 32 32 33 32 31 30 30 31 31 30 29 29 30 31 31 31 31 31 32 32 32 33 34 35 35 36 38
19 17 12 21 18 18 19 19 21 25 26 25 24 27 30 30 31 31 32 32 31 31 31 31 31 30 29 29 29 29 29 29 29 30 30 31 32 32 33 33 34 34 35 36
19 16 21 21 19 18 19 19 23 23 24 26 26 29 30 30 31 32 32 32 32 31 31 31 30 30 29 29 29 28 28 28 28 28 28 29 30 30 32 33 33 34 34 35
15 16 19 20 21 20 20 21 24 24 24 26 29 30 30 30 32 32 32 32 31 31 30 30 30 29 29 29 29 28 27 27 27 27 28 28 28 29 31 32 32 33 34 35
17 18 18 18 20 20 21 23 24 24 25 30 30 30 31 30 30 30 29 28 29 29 29 28 28 28 27 27 27 27 28 28 28 28 28 29 29 29 29 30 31 32 32 34
12 15 15 16 19 21 22 22 23 24 26 31 30 29 29 29 29 28 27 28 28 28 28 28 28 27 27 26 27 28 28 28 28 28 29 29 29 30 31 31 31 32 33 33
17 21 21 21 22 24 24 25 25 26 29 28 28 28 27 27 26 26 26 26 27 27 27 28 28 27 26 26 27 28 27 27 28 29 30 30 30 30 29 31 32 33 33 33
24 24 23 23 22 23 24 29 31 29 29 28 27 27 26 25 25 24 25 26 26 27 27 28 27 27 26 27 28 27 28 28 28 29 30 30 30 30 31 30 30 32 33 33
23 25 24 23 24 25 29 29 28 27 27 26 26 26 25 24 24 24 25 26 26 26 26 26 26 27 27 27 28 27 28 27 28 29 30 31 31 31 31 31 31 32 32 33
23 25 25 25 24 25 28 28 27 26 26 25 25 26 25 24 24 24 24 25 26 26 26 26 26 27 27 27 28 27 27 27 28 29 30 31 31 31 31 32 33 32 33 33
22 20 25 25 26 28 28 28 27 26 25 25 25 26 25 24 24 25 27 27 26 26 26 26 27 28 27 27 27 27 27 27 28 29 29 30 31 31 32 32 32 32 32 33
24 23 23 24 26 27 29 29 27 26 25 25 25 24 24 23 24 25 27 25 25 25 26 26 28 27 26 26 27 28 27 27 28 28 29 29 29 30 30 30 30 30 30 31
26 25 25 26 27 28 28 28 27 26 25 25 24 23 23 23 24 25 24 24 24 25 26 27 28 27 26 26 26 28 26 26 26 27 28 28 28 28 28 28 29 29 29 29
25 26 27 27 29 29 28 27 27 26 25 25 24 22 23 22 23 24 24 23 24 25 26 26 27 27 27 27 27 27 26 26 26 26 27 27 27 27 27 27 27 27 28 28
25 26 27 28 28 28 28 26 25 25 25 25 24 23 22 22 23 23 23 22 23 25 25 25 24 24 25 26 27 26 25 25 26 25 26 26 26 26 26 26 26 26 26 27
27 27 27 28 27 27 27 26 26 26 25 25 24 24 23 23 23 23 23 22 24 24 24 24 23 22 23 23 23 22 21 21 22 24 25 25 25 25 25 25 25 25 26 26
28 28 28 27 27 28 28 27 27 27 26 25 24 24 23 23 23 23 20 21 23 22 23 23 20 19 21 21 20 19 18 18 18 19 20 22 24 25 25 25 25 24 24 25
28 28 28 28 28 28 28 28 28 28 27 26 26 25 25 23 24 24 24 21 19 21 21 19 17 17 17 16 16 16 16 15 15 16 16 17 18 18 21 22 23 25 24 24
28 28 29 28 28 28 28 29 29 28 27 27 27 25 25 25 22 22 20 19 18 17 16 14 14 14 12 10 10 12 13 13 13 13 13 14 14 14 15 16 16 17 17 18
29 29 29 29 29 29 29 29 28 28 28 26 26 24 24 23 21 19 17 17 16 15 13 12 11 11 9 9 8 8 9 8 8 9 10 11 11 11 12 12 13 13 14 14
30 30 30 30 30 30 30 29 29 28 28 27 26 23 21 21 18 16 15 14 13 12 10 10 9 9 8 7 6 6 7 7 6 6 6 7 7 7 9 10 11 11 11 11
Wind_Speed
13 13 8 13 16 14 12 15 10 14 16 13 11 12 9 9 10 13 16 17 19 22 24 25 27 27 28 28 25 25 27 26 25 22 21 21 23 23 19 19 19 14 5 6
6 5 8 13 15 13 15 16 19 22 25 3 9 9 7 9 12 16 17 18 19 20 23 23 25 25 27 30 29 25 26 26 22 25 25 22 22 23 23 21 20 17 13 8
3 4 8 10 10 9 4 3 5 7 3 7 8 11 7 7 8 10 15 17 19 19 17 19 23 23 23 25 25 26 25 23 23 27 27 26 24 21 20 20 20 21 19 14
4 5 3 1 3 3 7 5 3 1 3 6 9 12 11 7 8 11 13 17 20 21 21 17 16 21 24 19 20 23 23 23 26 26 26 26 27 25 22 20 21 18 18 16
1 3 10 5 5 5 4 6 3 2 6 7 8 10 11 12 9 10 12 16 18 17 18 20 20 18 20 25 27 22 21 25 25 26 26 25 26 27 26 23 23 21 20 22
3 2 6 3 7 5 6 8 1 4 6 8 10 12 15 13 9 11 13 17 18 18 20 21 22 21 20 18 21 25 27 25 26 26 26 27 27 27 25 23 25 22 24 24
9 7 10 10 8 7 4 5 3 3 5 8 9 12 13 17 11 11 14 13 14 15 16 18 20 20 22 23 21 20 22 25 27 25 24 24 25 24 24 26 25 25 25 25
7 8 12 11 6 8 3 2 5 5 7 14 18 19 13 12 14 13 12 13 14 14 17 17 17 19 24 27 27 25 24 24 25 25 25 24 25 25 24 23 25 25 22 26
15 10 5 13 7 5 1 6 7 6 15 15 16 11 12 12 13 13 13 13 12 14 17 18 17 16 21 24 25 26 27 27 26 27 25 25 27 28 25 21 22 23 20 23
3 8 16 14 10 8 10 10 8 10 14 11 11 10 11 10 12 13 13 13 14 15 16 19 19 20 20 22 24 26 27 29 28 28 28 25 22 23 23 22 21 21 20 21
12 13 15 11 13 11 6 7 10 11 11 8 4 4 6 10 11 11 13 16 16 17 18 20 21 22 21 21 23 25 26 26 27 25 27 27 25 24 25 26 22 22 23 21
15 11 12 9 8 7 11 15 17 13 9 5 1 3 6 10 10 12 14 15 17 19 19 22 23 24 22 22 24 27 27 26 26 28 26 26 28 29 25 31 31 31 34 31
15 10 14 13 12 10 13 18 18 11 5 3 1 1 3 6 8 12 13 16 17 19 20 22 23 25 24 25 28 28 27 28 27 28 26 26 26 27 31 26 25 29 31 32
17 11 13 15 15 11 7 5 6 6 5 2 0 2 4 6 10 12 13 15 17 19 20 19 22 24 26 27 30 30 30 31 26 27 27 26 26 25 24 24 26 23 19 24
17 16 16 9 9 12 4 6 7 6 4 2 1 4 6 7 8 11 12 14 16 18 18 20 22 25 26 28 29 31 28 27 28 28 27 27 26 24 23 22 22 21 21 19
10 14 15 14 16 12 12 12 11 9 6 4 4 4 5 6 9 10 11 12 16 17 19 20 22 24 27 26 28 27 26 30 29 28 27 25 23 22 20 19 17 17 17 18
13 12 10 12 15 12 17 15 12 9 8 7 5 4 5 7 9 11 11 11 12 12 16 16 22 23 24 24 27 25 25 27 31 26 24 24 22 22 16 15 15 14 14 13
22 19 14 12 14 13 14 15 12 11 11 9 7 6 7 7 9 12 12 14 13 12 12 18 19 23 22 23 26 23 24 26 26 26 24 24 24 22 21 19 18 14 13 13
22 23 20 18 16 15 16 17 16 15 13 12 9 9 8 9 7 9 12 12 13 15 16 19 21 20 22 22 24 20 22 24 25 24 23 24 23 24 24 23 21 20 19 18
18 19 16 17 13 15 17 13 15 16 15 14 12 9 10 8 5 7 10 11 10 11 16 18 19 18 20 20 21 19 21 23 25 25 25 23 23 23 23 24 22 20 19 18
19 19 19 19 19 16 16 15 16 16 14 14 15 14 13 9 7 6 9 12 10 12 15 16 16 17 17 20 17 17 19 21 22 23 24 24 23 23 23 23 23 22 21 21
17 19 19 18 18 16 13 11 13 13 13 13 14 14 12 12 8 7 6 10 9 12 11 11 13 17 17 17 15 16 17 18 19 20 22 23 23 22 23 23 23 22 22 22
18 18 17 17 18 14 11 14 15 14 14 14 15 14 15 13 7 6 10 2 6 8 8 8 13 15 16 13 14 15 16 17 17 18 19 20 20 20 21 21 21 21 21 21
14 14 13 10 9 9 13 14 14 14 14 13 14 14 12 12 7 8 4 2 4 5 6 8 11 13 13 12 13 14 15 16 16 16 17 18 18 19 19 20 20 18 18 19
11 9 9 11 12 15 15 12 10 12 11 13 12 10 12 8 6 4 3 2 3 4 6 9 11 12 12 12 13 13 13 14 15 15 15 16 17 17 18 18 19 19 19 20
9 11 12 15 16 14 13 9 14 14 12 13 10 11 10 8 7 5 4 4 4 4 6 8 10 11 12 12 13 13 12 13 15 15 15 15 16 16 16 17 17 17 16 17
7 8 9 10 11 14 14 14 14 16 15 15 14 15 14 12 9 7 6 6 6 6 7 9 10 9 10 11 12 11 11 10 13 13 13 13 14 14 15 14 14 14 14 15
Wind_Direction
262 269 259 265 269 269 235 232 239 275 283 301 317 331 339 351 4 1 1 4 1 357 356 355 357 350 358 357 355 356 357 356 352 354 359 1 357 358 3 7 3 358 11 238
289 301 236 260 264 257 259 250 240 259 278 287 320 339 354 3 358 354 349 349 351 354 351 351 353 347 355 347 343 349 355 342 347 349 350 353 349 349 352 349 359 353 337 307
262 325 321 283 244 205 224 179 223 257 254 322 325 337 310 324 334 333 336 337 339 343 349 345 344 343 345 339 337 343 342 338 343 345 344 342 337 337 339 344 339 337 335 328
279 343 265 255 114 128 165 159 152 185 303 309 305 309 291 288 316 320 326 327 332 335 341 346 341 341 335 331 338 337 336 333 340 335 333 330 325 326 330 332 328 320 314 308
245 269 299 265 194 173 179 215 194 273 277 301 308 317 286 294 299 316 324 323 319 325 335 336 342 345 336 334 335 335 333 332 329 328 321 322 320 321 321 322 315 310 309 307
157 227 253 238 159 135 132 263 113 274 302 317 326 308 294 304 323 321 329 322 325 338 333 332 336 341 336 332 326 327 328 326 324 322 317 320 313 312 312 309 302 304 302 296
209 233 274 249 165 142 199 226 284 237 261 304 291 270 283 309 310 328 324 327 334 332 325 322 325 329 328 327 323 318 316 317 319 317 312 308 307 306 305 304 300 298 298 295
185 211 258 160 132 196 180 237 266 300 281 288 296 294 295 302 313 323 324 328 328 324 322 320 318 326 324 323 323 320 320 315 313 311 310 308 305 301 299 294 293 290 293 292
193 218 222 189 189 193 174 277 267 295 299 277 286 278 297 302 315 321 319 318 316 317 316 317 321 323 315 309 313 315 316 313 311 308 307 305 303 300 295 292 284 286 285 286
199 232 222 220 250 243 247 241 248 259 309 283 260 288 299 315 321 321 323 325 326 324 321 317 319 318 309 311 315 316 315 314 311 308 305 299 294 289 289 286 282 279 280 284
254 265 276 266 237 250 255 263 273 277 294 256 260 297 309 316 321 321 323 326 325 324 321 315 317 313 313 320 323 318 314 311 308 305 301 299 291 287 284 281 276 281 282 281
245 218 229 243 251 282 291 286 283 291 298 156 148 319 324 319 314 327 327 324 324 324 320 318 319 318 320 323 327 323 318 316 311 306 302 297 294 292 274 270 269 263 260 262
238 208 214 241 274 262 267 274 273 260 175 186 132 326 310 314 321 331 329 327 324 320 320 317 319 321 325 326 328 324 319 314 310 305 299 294 288 285 288 287 273 268 263 261
234 246 266 252 263 273 272 281 156 148 141 145 305 8 341 341 338 335 329 325 323 323 320 323 324 325 329 329 326 325 322 318 314 309 303 296 287 280 276 276 281 279 263 261
234 213 229 242 246 253 212 187 204 208 204 260 336 328 335 332 329 330 326 326 326 322 323 325 328 328 332 330 327 327 326 324 320 316 311 304 296 282 273 271 271 273 283 276
232 217 232 235 247 248 219 213 224 234 218 229 242 283 301 311 317 320 329 335 332 324 330 331 331 330 332 331 331 330 330 325 324 323 320 317 313 301 283 277 276 275 274 272
223 228 213 235 237 233 217 216 221 227 207 211 232 252 292 299 308 314 320 341 324 322 327 334 325 329 334 336 336 335 336 334 334 331 332 337 336 338 310 292 287 279 279 285
221 228 218 220 220 218 217 215 214 206 205 206 215 235 263 284 306 325 336 338 336 339 341 337 328 334 339 342 341 338 343 342 340 341 344 351 355 1 12 17 15 16 18 28
213 222 224 223 222 222 222 210 209 204 200 201 212 237 255 279 307 327 336 336 336 336 337 331 329 338 342 347 346 343 349 349 351 350 356 360 8 15 20 21 22 23 25 27
207 210 211 219 217 208 206 203 201 201 205 205 218 240 256 270 297 320 325 317 325 326 330 330 338 339 336 342 347 349 354 357 1 358 1 6 14 20 24 24 26 27 29 32
201 193 194 195 196 194 195 193 192 206 213 211 219 235 249 261 262 286 314 315 325 337 332 341 346 343 340 339 347 352 356 357 8 4 6 8 12 19 25 27 28 28 30 34
184 184 189 187 188 196 199 195 205 216 222 223 225 234 241 248 255 267 269 274 321 335 331 346 346 347 348 355 360 1 2 5 3 5 10 12 15 17 21 25 29 27 28 29
179 184 186 187 195 201 195 208 213 219 230 231 233 235 233 241 238 263 306 272 321 333 338 350 348 351 356 3 3 4 6 10 9 8 9 6 8 16 21 24 27 28 28 28
177 183 189 182 175 189 214 220 220 229 234 237 237 233 221 220 239 231 222 318 348 347 4 358 2 12 20 14 11 11 8 7 9 11 9 11 11 13 13 13 16 19 24 27
180 183 175 178 196 220 229 230 223 234 233 235 232 219 201 195 211 178 157 86 60 49 37 24 29 33 34 30 27 20 13 9 4 9 14 14 13 12 11 13 17 17 16 13
183 200 205 203 214 223 229 219 232 233 221 229 218 191 181 169 154 145 128 106 85 71 57 42 43 45 43 39 36 31 23 15 11 9 12 13 10 13 10 11 11 12 12 11
216 210 216 224 228 232 234 232 231 239 220 213 217 191 181 168 156 142 130 119 105 94 77 64 55 53 50 46 43 36 27 21 17 14 13 14 12 8 4 2 4 6 9 11